Fergus Falls, MN

3:36 PM CST on December 12, 2019 (GMT -0600)
Fergus Falls Municipal-Mickelson

Weather History for KFFM - October, 2019

Change the Weather History Date:

Tuesday, October 29, 2019

  Actual Average Record
Temperature  
Mean Temperature 26 °F -  
Max Temperature 32 °F 49 °F 73 °F (1950)
Min Temperature 19 °F 29 °F 3 °F (1996)
Degree Days  
Heating Degree Days 40    
Moisture  
Dew Point 16 °F    
Average Humidity 71    
Maximum Humidity 86    
Minimum Humidity 51    
Precipitation  
Precipitation 0.00 in - - ()
Sea Level Pressure  
Sea Level Pressure 30.23 in    
Wind  
Wind Speed 10 mph ()    
Max Wind Speed 18 mph    
Max Gust Speed 23 mph    
Visibility 10.0 miles    
Events      
Averages and records for this station are not official NWS values.
T = Trace of Precipitation, MM = Missing Value Source: Averaged Metar Reports

Daily Weather History Graph

Daily Weather History Graph

Search for Another Location

Airport or City:

Astronomy

Oct. 29, 2019 Rise Set
Actual Time 8:01 AM CDT 6:14 PM CDT
Civil Twilight 7:30 AM CDT 6:45 PM CDT
Nautical Twilight 6:54 AM CDT 7:21 PM CDT
Astronomical Twilight 6:19 AM CDT 7:56 PM CDT
Moon 9:39 AM CDT (10/29) 7:35 PM CDT (10/29)
Length of Visible Light 11h 15m
Length of Day
10h 13m
Waxing Crescent, 3% of the Moon is Illuminated
Oct 29
Waxing Crescent
Nov 4
First Quarter
Nov 12
Full
Nov 19
Last Quarter
Nov 26
New

Hourly Weather History & Observations

Time (CDT) Temp. Windchill Dew Point Humidity Pressure Visibility Wind Dir Wind Speed Gust Speed Precip Events Conditions
12:17 AM 28.4 °F 19.1 °F 21.2 °F 74% 30.10 in 10.0 mi NW 10.4 mph - N/A   Clear
12:55 AM 26.6 °F 14.7 °F 17.6 °F 69% 30.12 in 10.0 mi NNW 15.0 mph 19.6 mph N/A   Clear
12:56 AM 26.6 °F 14.7 °F 17.6 °F 69% 30.12 in 10.0 mi NNW 15.0 mph 19.6 mph N/A   Clear
1:15 AM 26.6 °F 14.7 °F 17.6 °F 69% 30.13 in 10.0 mi NNW 15.0 mph - N/A   Clear
1:37 AM 26.6 °F 16.2 °F 15.8 °F 64% 30.13 in 10.0 mi NNW 11.5 mph - N/A   Clear
1:55 AM 26.6 °F 16.2 °F 15.8 °F 64% 30.12 in 10.0 mi NNW 11.5 mph 20.7 mph N/A   Scattered Clouds
2:15 AM 26.6 °F 16.8 °F 15.8 °F 64% 30.13 in 10.0 mi North 10.4 mph 17.3 mph N/A   Clear
2:35 AM 24.8 °F 16.9 °F 15.8 °F 69% 30.14 in 10.0 mi NNW 6.9 mph - N/A   Clear
2:36 AM 24.8 °F 16.9 °F 15.8 °F 69% 30.14 in 10.0 mi NNW 6.9 mph - N/A   Clear
2:58 AM 24.8 °F 16.9 °F 15.8 °F 69% 30.14 in 10.0 mi NNW 6.9 mph - N/A   Mostly Cloudy
3:16 AM 26.6 °F 19.1 °F 15.8 °F 64% 30.14 in 10.0 mi NNW 6.9 mph - N/A   Overcast
3:36 AM 26.6 °F 19.1 °F 15.8 °F 64% 30.14 in 10.0 mi North 6.9 mph - N/A   Overcast
3:55 AM 26.6 °F 16.8 °F 15.8 °F 64% 30.15 in 10.0 mi NNW 10.4 mph - N/A   Overcast
3:56 AM 26.6 °F 17.5 °F 15.8 °F 64% 30.15 in 10.0 mi NNW 9.2 mph - N/A   Overcast
4:15 AM 24.8 °F 15.3 °F 15.8 °F 69% 30.15 in 10.0 mi NNW 9.2 mph - N/A   Overcast
4:20 AM 24.8 °F 15.3 °F 15.8 °F 69% 30.15 in 10.0 mi NW 9.2 mph - N/A   Mostly Cloudy
4:37 AM 24.8 °F 17.9 °F 15.8 °F 69% 30.15 in 10.0 mi NW 5.8 mph - N/A   Mostly Cloudy
4:56 AM 23.0 °F 15.8 °F 15.8 °F 74% 30.16 in 10.0 mi NW 5.8 mph - N/A   Scattered Clouds
5:15 AM 21.2 °F 14.9 °F 15.8 °F 80% 30.17 in 10.0 mi WNW 4.6 mph - N/A   Clear
5:16 AM 21.2 °F 14.9 °F 15.8 °F 80% 30.17 in 10.0 mi WNW 4.6 mph - N/A   Clear
5:35 AM 21.2 °F 13.6 °F 15.8 °F 80% 30.17 in 10.0 mi NW 5.8 mph - N/A   Clear
5:36 AM 21.2 °F 14.9 °F 15.8 °F 80% 30.17 in 10.0 mi WNW 4.6 mph - N/A   Clear
5:58 AM 21.2 °F 13.6 °F 15.8 °F 80% 30.17 in 10.0 mi WNW 5.8 mph - N/A   Clear
6:35 AM 19.4 °F 11.5 °F 15.8 °F 86% 30.19 in 10.0 mi West 5.8 mph - N/A   Clear
6:55 AM 19.4 °F 8.6 °F 15.8 °F 86% 30.19 in 10.0 mi WNW 9.2 mph - N/A   Clear
6:56 AM 19.4 °F 9.5 °F 15.8 °F 86% 30.19 in 10.0 mi WNW 8.1 mph - N/A   Clear
7:15 AM 19.4 °F 10.4 °F 15.8 °F 86% 30.19 in 10.0 mi WNW 6.9 mph - N/A   Clear
7:19 AM 19.4 °F 10.4 °F 15.8 °F 86% 30.20 in 10.0 mi WNW 6.9 mph - N/A   Clear
7:38 AM 19.4 °F 10.4 °F 15.8 °F 86% 30.20 in 10.0 mi West 6.9 mph - N/A   Clear
7:55 AM 19.4 °F 10.4 °F 15.8 °F 86% 30.20 in 10.0 mi WNW 6.9 mph - N/A   Clear
8:15 AM 19.4 °F 10.4 °F 15.8 °F 86% 30.21 in 10.0 mi West 6.9 mph - N/A   Clear
8:16 AM 19.4 °F 9.5 °F 15.8 °F 86% 30.21 in 10.0 mi West 8.1 mph - N/A   Clear
8:35 AM 21.2 °F 12.6 °F 15.8 °F 80% 30.22 in 10.0 mi West 6.9 mph - N/A   Clear
8:58 AM 21.2 °F 10.1 °F 17.6 °F 86% 30.22 in 10.0 mi WNW 10.4 mph - N/A   Clear
9:17 AM 23.0 °F 11.7 °F 17.6 °F 80% 30.23 in 10.0 mi WNW 11.5 mph - N/A   Clear
9:36 AM 23.0 °F 11.1 °F 17.6 °F 80% 30.24 in 10.0 mi WNW 12.7 mph - N/A   Clear
9:55 AM 24.8 °F 12.4 °F 17.6 °F 74% 30.25 in 10.0 mi WNW 15.0 mph - N/A   Clear
9:56 AM 24.8 °F 12.4 °F 17.6 °F 74% 30.25 in 10.0 mi WNW 15.0 mph - N/A   Clear
10:15 AM 24.8 °F 11.5 °F 17.6 °F 74% 30.25 in 10.0 mi WNW 17.3 mph 23.0 mph N/A   Clear
10:20 AM 24.8 °F 11.1 °F 17.6 °F 74% 30.25 in 10.0 mi WNW 18.4 mph - N/A   Clear
10:37 AM 24.8 °F 12.9 °F 17.6 °F 74% 30.26 in 10.0 mi West 13.8 mph 20.7 mph N/A   Clear
10:55 AM 26.6 °F 14.3 °F 17.6 °F 69% 30.26 in 10.0 mi West 16.1 mph - N/A   Clear
11:15 AM 28.4 °F 17.0 °F 17.6 °F 64% 30.26 in 10.0 mi WNW 15.0 mph - N/A   Clear
11:16 AM 28.4 °F 17.0 °F 17.6 °F 64% 30.26 in 10.0 mi West 15.0 mph - N/A   Clear
11:35 AM 28.4 °F 18.0 °F 17.6 °F 64% 30.26 in 10.0 mi West 12.7 mph - N/A   Clear
11:36 AM 28.4 °F 17.5 °F 17.6 °F 64% 30.26 in 10.0 mi West 13.8 mph 19.6 mph N/A   Clear
11:58 AM 28.4 °F 18.0 °F 17.6 °F 64% 30.27 in 10.0 mi WNW 12.7 mph - N/A   Scattered Clouds
12:17 PM 28.4 °F 16.2 °F 17.6 °F 64% 30.27 in 10.0 mi West 17.3 mph 21.9 mph N/A   Scattered Clouds
12:35 PM 28.4 °F 16.2 °F 15.8 °F 59% 30.27 in 10.0 mi WNW 17.3 mph 23.0 mph N/A   Scattered Clouds
12:36 PM 28.4 °F 16.6 °F 17.6 °F 64% 30.27 in 10.0 mi West 16.1 mph 23.0 mph N/A   Scattered Clouds
12:55 PM 30.2 °F 18.9 °F 15.8 °F 55% 30.27 in 10.0 mi WNW 16.1 mph 21.9 mph N/A   Scattered Clouds
12:56 PM 30.2 °F 19.3 °F 15.8 °F 55% 30.27 in 10.0 mi WNW 15.0 mph 20.7 mph N/A   Scattered Clouds
1:18 PM 28.4 °F 15.8 °F 15.8 °F 59% 30.26 in 10.0 mi WNW 18.4 mph - N/A   Clear
1:36 PM 30.2 °F 19.3 °F 15.8 °F 55% 30.26 in 10.0 mi WNW 15.0 mph 20.7 mph N/A   Scattered Clouds
1:55 PM 28.4 °F 16.2 °F 15.8 °F 59% 30.25 in 10.0 mi WNW 17.3 mph 20.7 mph N/A   Scattered Clouds
2:40 PM 30.2 °F 19.8 °F 15.8 °F 55% 30.24 in 10.0 mi WNW 13.8 mph 19.6 mph N/A   Scattered Clouds
2:57 PM 32.0 °F 20.5 °F 15.8 °F 51% 30.24 in 10.0 mi West 18.4 mph 23.0 mph N/A   Mostly Cloudy
3:15 PM 30.2 °F 18.1 °F 15.8 °F 55% 30.24 in 10.0 mi West 18.4 mph 21.9 mph N/A   Scattered Clouds
3:36 PM 28.4 °F 17.0 °F 14.0 °F 55% 30.23 in 10.0 mi WNW 15.0 mph - N/A   Scattered Clouds
3:55 PM 30.2 °F 18.9 °F 14.0 °F 51% 30.24 in 10.0 mi West 16.1 mph 20.7 mph N/A   Clear
3:56 PM 30.2 °F 19.3 °F 14.0 °F 51% 30.24 in 10.0 mi West 15.0 mph 20.7 mph N/A   Clear
4:18 PM 30.2 °F 20.2 °F 15.8 °F 55% 30.24 in 10.0 mi WNW 12.7 mph - N/A   Mostly Cloudy
4:37 PM 30.2 °F 20.8 °F 15.8 °F 55% 30.24 in 10.0 mi WNW 11.5 mph 21.9 mph N/A   Mostly Cloudy
4:56 PM 28.4 °F 17.5 °F 14.0 °F 55% 30.24 in 10.0 mi WNW 13.8 mph - N/A   Scattered Clouds
5:15 PM 28.4 °F 17.5 °F 15.8 °F 59% 30.25 in 10.0 mi WNW 13.8 mph - N/A   Mostly Cloudy
5:16 PM 28.4 °F 17.0 °F 15.8 °F 59% 30.25 in 10.0 mi WNW 15.0 mph - N/A   Mostly Cloudy
5:35 PM 28.4 °F 16.6 °F 15.8 °F 59% 30.25 in 10.0 mi West 16.1 mph 21.9 mph N/A   Mostly Cloudy
5:39 PM 28.4 °F 17.0 °F 14.0 °F 55% 30.26 in 10.0 mi West 15.0 mph 21.9 mph N/A   Mostly Cloudy
5:57 PM 26.6 °F 15.7 °F 15.8 °F 64% 30.26 in 10.0 mi West 12.7 mph 19.6 mph N/A   Scattered Clouds
6:16 PM 26.6 °F 15.7 °F 15.8 °F 64% 30.27 in 10.0 mi West 12.7 mph - N/A   Scattered Clouds
6:35 PM 24.8 °F 16.1 °F 14.0 °F 64% 30.27 in 10.0 mi West 8.1 mph - N/A   Clear
6:36 PM 24.8 °F 16.1 °F 15.8 °F 69% 30.27 in 10.0 mi West 8.1 mph - N/A   Clear
6:55 PM 23.0 °F 17.0 °F 15.8 °F 74% 30.28 in 10.0 mi West 4.6 mph - N/A   Clear
6:56 PM 23.0 °F 15.8 °F 15.8 °F 74% 30.28 in 10.0 mi West 5.8 mph - N/A   Clear
7:19 PM 23.0 °F 14.7 °F 15.8 °F 74% 30.29 in 10.0 mi West 6.9 mph - N/A   Clear
7:36 PM 21.2 °F 14.9 °F 15.8 °F 80% 30.30 in 10.0 mi West 4.6 mph - N/A   Clear
7:56 PM 21.2 °F 13.6 °F 15.8 °F 80% 30.30 in 10.0 mi West 5.8 mph - N/A   Scattered Clouds
8:15 PM 19.4 °F 10.4 °F 15.8 °F 86% 30.30 in 10.0 mi West 6.9 mph - N/A   Clear
8:16 PM 19.4 °F 10.4 °F 15.8 °F 86% 30.30 in 10.0 mi West 6.9 mph - N/A   Clear
8:35 PM 21.2 °F 11.7 °F 15.8 °F 80% 30.30 in 10.0 mi WNW 8.1 mph - N/A   Clear
8:39 PM 21.2 °F 10.9 °F 15.8 °F 80% 30.30 in 10.0 mi WNW 9.2 mph - N/A   Clear
8:57 PM 21.2 °F 14.9 °F 15.8 °F 80% 30.30 in 10.0 mi WNW 4.6 mph - N/A   Clear
9:16 PM 19.4 °F 14.3 °F 14.0 °F 80% 30.31 in 10.0 mi West 3.5 mph - N/A   Clear
9:35 PM 19.4 °F 14.3 °F 15.8 °F 86% 30.31 in 10.0 mi WSW 3.5 mph - N/A   Clear
9:36 PM 19.4 °F 14.3 °F 15.8 °F 86% 30.31 in 10.0 mi WSW 3.5 mph - N/A   Clear
9:55 PM 19.4 °F - 15.8 °F 86% 30.31 in 10.0 mi Calm Calm - N/A   Mostly Cloudy
9:56 PM 19.4 °F - 15.8 °F 86% 30.31 in 10.0 mi Calm Calm - N/A   Mostly Cloudy
10:19 PM 21.2 °F 16.4 °F 17.6 °F 86% 30.31 in 10.0 mi SW 3.5 mph - N/A   Overcast
10:36 PM 21.2 °F 14.9 °F 15.8 °F 80% 30.31 in 10.0 mi SW 4.6 mph - N/A   Overcast
10:55 PM 21.2 °F 12.6 °F 15.8 °F 80% 30.31 in 10.0 mi SW 6.9 mph - N/A   Overcast
10:56 PM 21.2 °F 13.6 °F 15.8 °F 80% 30.31 in 10.0 mi SW 5.8 mph - N/A   Overcast
11:15 PM 21.2 °F 12.6 °F 15.8 °F 80% 30.32 in 10.0 mi WSW 6.9 mph - N/A   Overcast
11:35 PM 23.0 °F 14.7 °F 17.6 °F 80% 30.32 in 10.0 mi SW 6.9 mph - N/A   Overcast
11:39 PM 23.0 °F 15.8 °F 17.6 °F 80% 30.32 in 10.0 mi SW 5.8 mph - N/A   Overcast
11:57 PM 24.8 °F 14.6 °F 15.8 °F 69% 30.31 in 10.0 mi West 10.4 mph - N/A   Overcast